Weather in Farn

Russia / Republic of North Ossetia — Alania     43°10′50″N   44°30′03″E
temp.,
°C
wind,
m/s
gust,
m/s
humid.,
%
clouds,
%
prec.,
mm/h
press.,
hPa
HPBL,
m
6 may, thu
thu600:00+7e3584100 0.0 1018100
03:00+6ese11888 0.0 101814
06:00+7ese11840 0.0 101771
09:00+14ene23600 0.0 1015735
12:00+17ene43540 0.0 10141152
15:00+18ene445122 0.0 10121199
18:00+15ene586351 0.0 1013357
21:00+9ene4771100 0.0 1015133
7 may, fri
fri700:00+9n0171100 0.0 101511
03:00+8wsw117589 0.0 101610
06:00+10wnw117696 0.0 101741
09:00+14wnw2266100 0.0 1017399
12:00+19nw33495 0.0 1017986
15:00+20nnw32440 0.0 10161199
18:00+17nne23632 0.0 101761
21:00+12e22715 0.0 101911
8 may, sat
sat800:00+11se22775 0.0 101911
03:00+10ese11770 0.0 101811
06:00+12e11735 0.0 101834
09:00+18ene34560 0.0 1016698
12:00+21ene555014 0.0 10141119
15:00+22ene555016 0.0 10131239
18:00+19ene476999 0.0 1012276
21:00+14ene3483100 0.0 101256
9 may, sun
sun900:00+13ne008625 0.0 101110
03:00+11s11900 0.0 101010
06:00+13se1185100 0.0 100938
09:00+19nw2266100 0.0 1008464
12:00+18nw4669100 0.0 1011928
15:00+15nnw6979100 0.3 1014794
18:00+7wnw51189100 3.9 10231093
21:00+5sw4696100 6.7 1026885
10 may, mon
mon1000:00+5sw4592100 0.8 1026657
03:00+5wsw5788100 1.1 1026539
06:00+6sw468497 0.0 1026660
09:00+9w366299 0.3 10241471
12:00+12w144782 0.1 10221854
15:00+14w244253 0.1 10202106
18:00+11nne466612 0.1 1020388
21:00+8nw2480100 0.1 1022278